Theta_e
310 313 314 317 336 337 336 336 336 337 336 333 331 329 330 329 328 328 327 321 319 320 320 317 313 310 310 310 309 310 313 312 310 309 306 306 305 305 305 304 305 305 304
313 313 315 319 323 324 329 336 336 337 336 333 330 328 326 325 326 327 323 320 320 320 319 318 314 311 310 309 309 310 310 312 310 307 305 302 302 302 303 304 305 304 303
311 311 311 313 318 322 326 328 336 336 335 334 329 327 325 323 321 321 320 320 320 320 319 317 315 311 309 309 311 310 310 311 310 308 308 305 303 300 300 302 304 303 302
309 310 309 310 312 318 324 328 329 336 335 333 328 323 324 322 320 318 319 320 319 319 317 315 312 310 310 310 310 310 310 312 309 308 307 308 304 299 299 299 299 302 302
308 308 308 310 312 315 319 325 331 336 334 332 328 322 320 320 319 317 317 319 318 316 316 314 311 310 309 309 310 309 309 310 310 308 305 305 303 301 298 296 295 297 300
308 308 308 309 311 313 316 319 324 326 328 330 328 322 319 317 315 315 315 315 314 312 313 311 310 309 309 309 309 309 308 307 308 308 306 305 303 300 298 297 295 294 294
308 307 307 307 309 311 313 316 318 321 322 322 321 319 319 316 315 314 314 311 310 310 310 309 309 309 309 309 308 307 307 307 305 305 304 302 302 302 299 298 296 293 292
307 307 307 307 308 309 311 312 316 317 320 321 319 318 318 315 314 313 312 309 308 305 308 308 308 308 307 306 305 304 304 304 302 301 301 300 298 300 299 297 295 294 293
308 307 306 307 308 308 309 310 311 314 317 319 319 319 317 314 313 312 310 309 308 308 307 306 306 305 304 303 302 301 300 299 298 298 297 296 296 297 298 298 296 296 294
308 307 306 307 308 308 308 307 308 311 313 314 316 316 316 314 313 313 312 310 309 309 305 303 304 302 301 301 302 300 299 298 296 295 294 294 294 294 295 296 296 297 295
306 306 306 307 307 308 308 307 307 308 309 310 310 310 314 315 313 311 308 308 305 305 302 302 301 300 300 299 299 297 296 297 295 294 295 297 297 296 297 297 297 296 294
307 306 306 306 307 308 307 306 305 306 306 305 307 309 308 309 309 308 307 306 303 300 299 300 298 298 298 298 298 297 296 296 297 298 296 294 293 292 292 293 293 293 294
301 303 305 305 306 306 307 306 305 304 304 303 303 303 304 304 303 301 299 298 298 299 297 297 297 296 297 297 296 295 296 295 295 295 293 292 293 291 290 289 289 289 289
299 301 302 303 305 306 306 306 303 303 303 301 301 300 300 300 299 299 299 297 297 296 295 295 295 296 296 295 295 295 294 293 292 291 291 291 290 288 287 287 287 286 287
301 301 301 302 304 305 306 305 302 302 302 301 299 298 298 298 297 296 295 295 296 296 296 298 296 295 295 294 294 292 291 291 290 289 289 288 287 286 287 286 285 285 285
302 302 303 303 303 305 304 303 301 301 303 300 298 297 296 296 295 295 295 296 296 296 296 294 294 293 292 291 290 290 289 289 287 285 284 285 285 285 284 284 283 283 284
302 303 304 303 303 305 303 303 303 303 304 299 297 296 295 295 294 294 294 293 293 293 293 292 291 290 289 288 288 288 287 286 286 287 286 284 282 282 281 280 280 280 280
303 304 306 305 304 303 304 305 303 303 298 297 297 296 295 294 293 293 292 291 291 291 290 289 289 289 288 288 287 287 287 287 286 284 282 282 281 280 280 280 279 279 279
304 304 305 305 304 304 305 305 303 300 298 296 296 295 295 294 293 292 291 290 290 289 288 288 287 287 286 287 287 286 285 284 283 282 282 282 280 279 280 280 280 280 278
303 303 304 305 305 305 306 300 298 297 296 296 296 296 295 293 292 291 291 290 290 289 288 286 286 286 286 286 286 285 284 284 282 281 281 281 281 279 279 279 279 278 276
302 304 303 303 303 305 304 300 298 297 297 296 296 296 296 294 293 291 290 289 288 287 286 285 285 285 285 285 284 285 285 283 281 281 280 280 278 276 277 279 279 278 277
303 302 301 299 301 302 302 298 297 298 297 297 296 295 294 293 292 291 289 288 287 285 284 284 284 284 284 284 283 284 284 284 283 281 280 279 277 275 275 276 276 277 275
301 301 299 297 299 300 301 297 296 297 297 296 295 294 293 291 290 289 288 286 286 284 283 283 282 282 283 283 283 283 283 283 282 281 279 278 277 275 274 275 275 275 275
300 301 298 295 295 298 298 298 298 297 296 294 293 292 291 290 289 288 287 286 285 284 283 282 281 281 282 282 283 282 281 281 280 279 278 278 275 275 275 275 275 275 275
300 300 299 296 294 294 294 294 294 294 294 292 291 290 289 289 288 287 287 286 285 286 284 282 282 280 280 282 282 282 281 280 280 279 278 277 274 275 275 276 276 276 275
300 300 298 297 293 293 293 292 292 293 292 290 289 289 288 287 287 286 286 286 286 286 286 286 285 283 283 281 281 281 281 281 281 279 277 276 275 276 276 276 276 276 276
Wind_Speed
10 24 25 13 14 19 22 26 32 37 35 35 38 36 43 40 40 39 40 36 34 33 30 28 26 25 25 23 23 23 24 24 23 24 19 15 15 16 18 18 19 18 17
15 15 21 28 30 20 13 24 29 31 40 38 40 30 30 34 40 39 38 38 38 36 34 32 30 30 29 27 26 25 25 23 30 14 10 2 4 7 13 18 20 20 19
11 13 15 17 22 26 26 18 31 36 38 34 28 27 26 24 32 37 39 42 40 38 37 35 33 32 31 32 32 30 32 26 31 32 8 4 4 6 7 13 20 21 20
13 14 15 22 23 21 26 25 19 31 31 30 26 32 34 26 29 33 42 42 39 39 38 36 34 35 33 32 33 32 35 36 32 33 10 6 16 3 3 9 16 20 20
10 12 13 19 24 31 32 26 16 19 27 30 29 30 26 26 31 34 40 42 41 40 39 37 36 36 35 34 33 35 32 33 34 30 14 11 12 13 5 3 7 15 19
6 6 7 14 23 32 36 32 18 7 10 26 33 34 30 25 25 30 34 39 39 37 37 34 35 33 31 31 31 29 29 25 27 30 20 13 7 8 6 3 9 12 15
3 5 6 8 15 20 21 23 25 15 7 12 19 27 30 32 34 32 31 33 36 40 39 37 37 34 29 27 26 24 20 20 19 21 15 11 11 13 10 14 13 5 10
5 5 5 9 10 13 14 14 12 14 14 8 11 19 21 26 24 25 17 15 12 11 37 36 32 31 30 25 21 18 15 14 14 13 13 10 7 14 16 16 24 6 3
7 8 8 11 13 12 13 13 12 8 3 5 12 14 18 22 24 25 22 21 20 22 27 28 33 31 29 28 23 20 19 16 15 12 10 9 9 10 13 23 28 18 4
8 8 7 14 16 15 12 11 11 12 8 5 4 9 18 23 21 22 27 32 32 34 36 35 32 30 29 28 24 22 22 20 18 16 14 15 12 12 12 21 18 9 8
10 9 9 16 18 18 17 14 13 13 11 6 2 5 13 23 24 23 27 31 31 37 38 36 35 33 31 27 25 26 23 20 18 15 10 8 6 6 6 10 12 12 15
13 14 12 15 18 23 21 15 11 11 12 9 3 3 7 17 22 29 31 31 34 32 36 36 35 32 30 27 26 25 24 22 19 16 14 10 8 11 10 11 16 18 18
12 13 13 13 17 19 24 20 12 8 9 6 2 5 9 14 16 17 21 25 29 33 28 26 28 27 26 25 22 23 23 21 18 16 14 14 10 9 13 16 15 15 16
17 15 11 13 22 23 22 21 14 6 3 7 2 4 9 13 15 20 22 25 28 26 27 26 22 21 21 21 22 20 17 16 15 14 13 13 15 19 18 16 13 14 16
17 16 18 16 19 21 20 19 11 7 4 5 4 4 8 12 14 17 21 26 28 26 24 23 21 23 21 20 18 17 19 17 17 16 15 16 17 15 12 14 12 14 17
19 22 23 17 15 18 18 18 11 9 6 7 7 6 8 12 15 17 19 21 23 23 22 22 23 21 17 17 18 18 18 18 18 21 20 18 14 12 11 10 10 10 16
21 20 21 15 15 19 21 21 15 11 7 15 11 9 10 13 17 20 22 23 26 26 26 24 22 19 18 18 20 19 21 24 21 17 15 14 13 11 11 12 11 10 10
20 20 15 9 9 20 23 18 13 8 13 14 13 12 13 14 15 16 18 20 21 21 20 19 20 22 22 23 21 20 17 16 15 17 18 13 13 12 13 15 14 13 12
17 10 13 6 16 22 27 19 19 20 19 16 17 17 17 17 18 20 19 19 20 19 18 19 21 22 21 19 18 19 19 20 17 16 14 11 14 12 12 15 17 14 12
11 12 12 3 11 18 20 11 13 17 16 19 19 18 19 19 19 19 20 21 20 20 19 20 19 19 22 19 20 20 21 19 18 17 16 15 13 10 13 14 16 16 12
11 13 8 4 4 11 13 16 17 17 18 19 18 19 20 19 19 18 18 20 22 23 22 20 18 17 16 19 19 21 20 22 21 20 17 16 12 11 12 13 14 13 12
12 9 5 4 1 9 15 15 14 14 16 16 19 21 21 21 20 21 20 22 23 23 22 21 19 16 19 18 16 17 18 19 24 24 20 17 14 13 12 12 13 11 11
10 6 12 6 2 3 11 11 11 13 15 16 18 17 17 19 21 23 24 22 25 22 20 20 19 17 18 20 15 18 20 24 25 22 19 16 13 12 11 10 11 12 11
8 3 6 11 10 8 10 10 11 10 12 12 13 15 17 18 21 22 25 23 23 20 20 19 18 19 20 19 19 19 21 21 17 18 17 15 14 12 13 13 11 8 7
6 16 12 13 15 13 13 13 13 12 11 10 11 11 14 16 19 20 23 22 25 29 26 23 26 25 21 24 23 25 25 22 20 20 19 17 15 15 15 13 12 11 9
9 18 17 8 12 14 13 12 11 10 11 12 13 14 16 17 18 19 14 17 23 23 23 23 24 22 21 26 22 20 20 20 20 20 21 18 17 17 16 15 13 11 10
Wind_Direction
14 30 24 348 264 249 244 228 206 209 202 201 203 207 213 216 221 221 221 219 215 212 214 211 204 200 201 203 199 188 182 167 158 136 130 138 153 161 161 156 153 151 150
22 31 23 21 22 10 298 242 227 218 210 206 209 204 206 217 218 217 219 216 212 213 213 210 206 204 200 198 195 195 182 177 167 151 117 85 85 144 165 165 163 159 157
14 16 22 31 20 10 357 311 240 222 217 216 202 199 196 209 209 213 215 213 211 212 211 207 209 205 204 201 198 197 195 179 178 168 150 149 186 129 160 170 172 169 166
10 12 10 9 9 10 9 356 263 226 221 214 207 202 199 198 204 203 208 210 208 209 208 209 205 202 202 203 204 200 196 187 187 189 211 193 138 162 148 178 168 179 175
21 15 11 4 0 11 13 12 359 239 220 214 211 209 215 209 204 195 201 204 204 206 207 205 200 202 204 205 202 200 199 198 193 192 189 162 159 146 139 156 160 169 177
24 23 17 22 19 19 15 13 8 357 234 220 215 210 207 206 190 187 191 196 201 201 205 201 198 201 205 202 202 202 205 206 209 211 207 180 169 174 152 117 157 149 167
352 351 358 1 13 18 18 18 12 357 316 247 233 218 213 209 198 193 192 186 191 196 196 196 191 191 195 196 195 198 201 204 211 215 217 215 214 190 162 138 154 137 147
320 318 334 344 355 2 2 4 17 8 345 298 263 228 226 211 202 195 200 196 201 218 188 185 190 185 180 182 181 183 176 178 181 184 185 189 175 190 177 157 148 107 130
298 302 310 312 322 330 335 337 335 338 354 327 300 260 248 218 207 195 190 191 188 199 200 187 180 176 170 167 168 161 148 143 135 140 131 131 129 142 184 171 160 145 138
266 276 281 285 295 293 294 304 310 309 310 305 248 271 230 223 219 212 210 205 201 199 195 184 173 169 166 163 164 160 152 151 142 148 137 148 125 117 122 158 158 168 122
304 292 268 266 269 272 274 281 296 303 300 297 290 230 221 219 208 204 204 198 196 195 194 177 170 167 160 157 156 150 149 150 148 151 162 185 183 192 192 197 198 189 171
277 281 278 266 266 265 260 260 280 299 306 313 300 209 212 199 195 198 199 200 192 184 183 170 170 168 160 160 160 159 160 163 175 182 191 190 186 181 181 191 197 199 211
287 287 282 272 261 247 250 245 242 268 290 291 258 156 168 184 178 164 164 168 170 175 169 162 167 167 161 160 165 167 170 178 184 183 189 185 199 196 190 187 180 166 170
283 279 267 258 259 254 233 230 220 203 282 294 266 146 150 153 164 163 170 165 163 164 157 159 161 159 161 165 173 179 177 179 174 172 176 174 179 184 171 164 164 155 153
281 282 280 273 254 245 225 227 200 155 162 306 286 187 155 156 163 160 162 161 163 163 166 165 167 171 176 182 186 182 170 164 158 164 168 174 168 169 170 172 162 156 151
287 288 290 278 253 227 203 191 183 166 148 246 243 199 158 156 165 171 165 161 159 161 164 167 171 166 176 174 178 174 162 155 157 151 145 142 151 165 164 161 160 167 168
291 299 297 276 242 196 171 165 180 187 196 206 207 193 177 169 172 168 165 162 164 166 172 171 173 161 162 165 167 164 160 157 160 162 157 146 148 162 160 145 141 145 153
301 303 299 280 151 143 160 162 182 205 190 191 194 197 195 184 176 171 174 172 171 171 172 169 165 171 171 168 158 167 165 161 165 162 167 164 156 157 156 151 141 135 130
295 281 287 169 146 159 169 174 177 194 194 185 191 199 203 198 189 182 182 180 171 170 170 174 172 168 160 167 165 163 157 162 166 164 171 158 162 164 165 160 161 151 136
322 319 328 319 166 174 186 147 153 172 179 191 201 207 208 207 196 193 186 182 182 176 171 173 182 173 161 165 164 170 172 167 161 162 161 155 164 171 175 176 169 156 156
312 307 316 291 193 167 190 176 179 188 192 200 207 212 217 220 219 203 188 175 170 170 169 173 177 179 179 163 168 182 184 177 171 170 166 165 164 163 183 184 187 186 174
299 307 193 254 134 201 191 180 178 187 193 205 212 216 216 213 210 197 182 170 169 156 157 164 166 178 183 177 166 184 191 194 193 185 179 170 168 166 182 180 183 186 172
310 229 178 176 175 210 201 171 175 179 191 201 213 218 219 206 198 183 171 160 164 154 151 154 162 173 182 183 172 192 199 202 190 188 180 166 162 167 170 160 151 153 155
303 283 195 213 142 152 138 157 164 178 184 194 208 206 198 193 188 180 175 164 162 155 155 156 159 168 180 178 175 179 177 193 185 171 160 161 167 171 167 156 160 157 156
256 291 259 231 165 168 150 156 165 169 176 187 195 192 195 185 173 175 178 174 181 182 171 173 175 168 175 184 187 182 185 183 181 173 170 172 177 175 179 182 182 185 195
240 293 247 220 203 168 153 152 157 165 176 168 166 172 171 167 159 155 157 182 194 191 197 199 195 190 193 187 187 188 187 188 188 180 180 186 190 193 190 188 193 204 215